User: anonymous   Login
Location: Stoke Bliss
(52.2667°N, 2.5167°W)
Time: 04:17:29
(UTC+00:00)
Language:

CSL-04 Rocket - Orbit

View from above orbital plane
View from above orbital plane
View from above satellite
View from above satellite

Ground track
Ground track

The orbit data is extracted from the following two-line orbital elements,

1 25732U 99025C   21128.32876083 -.00000019  00000-0  12663-4 0  9998
2 25732  98.9061 164.6882 0037390   6.0041   4.4428 14.17692003137996
Epoch (UTC): 08 May 2021 07:53:24
Eccentricity: 0.0037390
inclination: 98.9061°
perigee height: 806 km
apogee height: 860 km
right ascension of ascending node: 164.6882°
argument of perigee: 6.0041°
revolutions per day: 14.17692003
mean anomaly at epoch: 4.4428°
orbit number at epoch: 13799

The dashed part of the orbit path shows where the satellite is in the earth's shadow,  

DLR